Edenton, NC

2:49 AM EDT on June 25, 2018 (GMT -0400)
Northeastern Regional

Weather History for KEDE - January, 2018

Change the Weather History Date:

Monday, January 1, 2018

  Actual Average Record
Temperature  
Mean Temperature 23 °F -  
Max Temperature 29 °F 56 °F 73 °F (1952)
Min Temperature 17 °F 37 °F 17 °F (2018)
Degree Days  
Heating Degree Days 42    
Moisture  
Dew Point 5 °F    
Average Humidity 45    
Maximum Humidity 64    
Minimum Humidity 30    
Precipitation  
Precipitation 0.00 in - - ()
Sea Level Pressure  
Sea Level Pressure 30.46 in    
Wind  
Wind Speed 10 mph (North)    
Max Wind Speed 21 mph    
Max Gust Speed 28 mph    
Visibility 10 miles    
Events      
Averages and records for this station are not official NWS values.
T = Trace of Precipitation, MM = Missing Value Source: NWS Daily Summary

Daily Weather History Graph

Daily Weather History Graph

Search for Another Location

Airport or City:

Astronomy

Jan. 01, 2018 Rise Set
Actual Time 7:17 AM EST 5:02 PM EST
Civil Twilight 6:48 AM EST 5:31 PM EST
Nautical Twilight 6:16 AM EST 6:03 PM EST
Astronomical Twilight 5:45 AM EST 6:34 PM EST
Moon 4:56 PM EST (1/1) 6:31 AM EST (1/1)
Length of Visible Light 10h 42m
Length of Day
9h 45m
Full, 100% of the Moon is Illuminated
Jan 1
Full
Jan 1
Full
Jan 8
Last Quarter
Jan 16
New
Jan 24
First Quarter

Hourly Weather History & Observations

Time (EST) Temp. Windchill Dew Point Humidity Pressure Visibility Wind Dir Wind Speed Gust Speed Precip Events Conditions
12:05 AM 25.5 °F 16.9 °F 4.8 °F 41% 30.39 in 10.0 mi North 8.1 mph - N/A   Overcast
12:25 AM 25.2 °F 14.4 °F 4.3 °F 41% 30.38 in 10.0 mi North 11.5 mph 18.4 mph N/A   Overcast
12:45 AM 24.8 °F 15.3 °F 3.4 °F 40% 30.38 in 10.0 mi North 9.2 mph 20.7 mph N/A   Overcast
1:05 AM 24.6 °F 15.8 °F 3.9 °F 41% 30.39 in 10.0 mi North 8.1 mph 17.3 mph N/A   Overcast
1:25 AM 24.4 °F 13.0 °F 6.3 °F 46% 30.40 in 10.0 mi North 12.7 mph 19.6 mph N/A   Overcast
1:45 AM 23.9 °F 12.3 °F 6.6 °F 48% 30.41 in 10.0 mi North 12.7 mph 17.3 mph N/A   Overcast
2:05 AM 23.9 °F 12.3 °F 7.5 °F 50% 30.41 in 10.0 mi North 12.7 mph 18.4 mph N/A   Overcast
2:25 AM 23.0 °F 13.1 °F 7.7 °F 52% 30.42 in 10.0 mi North 9.2 mph 18.4 mph N/A   Overcast
3:05 AM 22.3 °F 10.2 °F 8.2 °F 55% 30.42 in 10.0 mi North 12.7 mph 18.4 mph N/A   Overcast
3:25 AM 21.4 °F 9.7 °F 8.4 °F 57% 30.42 in 10.0 mi North 11.5 mph 17.3 mph N/A   Mostly Cloudy
3:45 AM 20.5 °F 10.8 °F 8.6 °F 60% 30.43 in 10.0 mi North 8.1 mph - N/A   Clear
4:05 AM 20.1 °F 10.3 °F 8.8 °F 62% 30.43 in 10.0 mi North 8.1 mph - N/A   Clear
5:00 AM 19.0 °F 10.0 °F 8.6 °F 64% 30.44 in 10.0 mi North 6.9 mph - N/A   Clear
5:20 AM 18.9 °F 10.8 °F 8.6 °F 64% 30.44 in 10.0 mi North 5.8 mph - N/A   Clear
8:45 AM 19.2 °F 7.7 °F 8.6 °F 63% 30.49 in 10.0 mi North 10.4 mph - N/A   Clear
9:05 AM 19.8 °F 7.7 °F 8.8 °F 62% 30.50 in 10.0 mi North 11.5 mph 16.1 mph N/A   Clear
9:25 AM 21.4 °F 9.1 °F 8.4 °F 57% 30.50 in 10.0 mi North 12.7 mph 18.4 mph N/A   Clear
9:45 AM 22.8 °F 9.9 °F 7.7 °F 52% 30.51 in 10.0 mi North 15.0 mph 21.9 mph N/A   Clear
10:05 AM 23.5 °F 9.9 °F 6.6 °F 49% 30.51 in 10.0 mi North 17.3 mph 21.9 mph N/A   Clear
10:25 AM 24.6 °F 12.7 °F 6.4 °F 46% 30.51 in 10.0 mi North 13.8 mph 27.6 mph N/A   Clear
10:45 AM 24.8 °F 13.4 °F 5.9 °F 45% 30.51 in 10.0 mi North 12.7 mph 25.3 mph N/A   Clear
11:05 AM 25.9 °F 12.5 °F 6.1 °F 43% 30.51 in 10.0 mi North 18.4 mph 24.2 mph N/A   Clear
11:25 AM 26.6 °F 15.2 °F 6.1 °F 42% 30.50 in 10.0 mi North 13.8 mph 23.0 mph N/A   Clear
11:45 AM 27.5 °F 16.8 °F 4.6 °F 38% 30.49 in 10.0 mi North 12.7 mph 26.5 mph N/A   Clear
12:05 PM 27.9 °F 15.1 °F 3.2 °F 35% 30.48 in 10.0 mi North 18.4 mph 24.2 mph N/A   Clear
12:25 PM 28.8 °F 16.2 °F 2.3 °F 32% 30.47 in 10.0 mi North 18.4 mph 25.3 mph N/A   Clear
12:45 PM 29.3 °F 19.1 °F 2.3 °F 32% 30.46 in 10.0 mi North 12.7 mph 20.7 mph N/A   Clear
1:05 PM 28.6 °F 15.3 °F 1.0 °F 31% 30.45 in 10.0 mi North 20.7 mph 24.2 mph N/A   Clear
1:25 PM 28.4 °F 17.5 °F 1.2 °F 31% 30.45 in 10.0 mi North 13.8 mph 19.6 mph N/A   Clear
1:45 PM 28.0 °F 16.5 °F 0.9 °F 31% 30.44 in 10.0 mi NNW 15.0 mph 23.0 mph N/A   Clear
2:05 PM 28.6 °F 17.7 °F 0.9 °F 31% 30.43 in 10.0 mi North 13.8 mph 20.7 mph N/A   Clear
2:25 PM 29.1 °F 17.9 °F 1.0 °F 30% 30.44 in 10.0 mi North 15.0 mph 24.2 mph N/A   Clear
2:45 PM 28.6 °F 18.2 °F 0.3 °F 30% 30.44 in 10.0 mi NNW 12.7 mph 18.4 mph N/A   Clear
3:05 PM 28.2 °F 17.7 °F 0.3 °F 30% 30.44 in 10.0 mi North 12.7 mph 18.4 mph N/A   Clear
3:25 PM 27.3 °F 16.6 °F -0.6 °F 30% 30.44 in 10.0 mi North 12.7 mph 17.3 mph N/A   Clear
3:45 PM 27.5 °F 18.6 °F 0.7 °F 32% 30.44 in 10.0 mi North 9.2 mph - N/A   Clear
4:05 PM 27.3 °F 17.7 °F 0.5 °F 32% 30.45 in 10.0 mi North 10.4 mph - N/A   Clear
4:25 PM 27.3 °F 17.7 °F 0.9 °F 32% 30.45 in 10.0 mi NNW 10.4 mph 17.3 mph N/A   Clear
4:45 PM 26.6 °F 16.8 °F 0.7 °F 33% 30.45 in 10.0 mi NNW 10.4 mph 16.1 mph N/A   Clear
5:05 PM 25.7 °F 18.0 °F 1.2 °F 35% 30.46 in 10.0 mi North 6.9 mph - N/A   Clear
5:25 PM 24.6 °F 17.7 °F 2.1 °F 38% 30.47 in 10.0 mi North 5.8 mph - N/A   Clear
5:45 PM 23.0 °F - 2.8 °F 42% 30.48 in 10.0 mi Calm Calm - N/A   Clear
6:05 PM 22.8 °F 18.2 °F 3.0 °F 43% 30.48 in 10.0 mi North 3.5 mph - N/A   Clear
6:25 PM 21.9 °F - 3.7 °F 46% 30.49 in 10.0 mi Calm Calm - N/A   Clear
6:45 PM 22.1 °F - 3.7 °F 45% 30.50 in 10.0 mi Calm Calm - N/A   Clear
7:05 PM 22.1 °F - 4.1 °F 46% 30.50 in 10.0 mi Calm Calm - N/A   Clear
7:25 PM 21.7 °F - 4.1 °F 47% 30.51 in 10.0 mi Calm Calm - N/A   Clear
7:45 PM 21.7 °F - 3.7 °F 46% 30.51 in 10.0 mi Calm Calm - N/A   Clear
8:05 PM 21.0 °F - 4.5 °F 49% 30.51 in 10.0 mi Calm Calm - N/A   Clear
8:25 PM 18.7 °F - 6.1 °F 58% 30.51 in 10.0 mi Calm Calm - N/A   Clear
8:45 PM 18.3 °F - 7.3 °F 62% 30.51 in 10.0 mi Calm Calm - N/A   Clear
9:05 PM 18.3 °F - 7.0 °F 61% 30.51 in 10.0 mi Calm Calm - N/A   Clear
9:25 PM 17.6 °F - 6.6 °F 62% 30.51 in 10.0 mi Calm Calm - N/A   Clear
9:45 PM 17.1 °F - 6.4 °F 63% 30.51 in 10.0 mi Calm Calm - N/A   Clear